Location: Lewisville
(33.0462°N, 96.9942°W)
Time: 06:36:52
(UTC-06:00)

ISS - Visible Passes

Search period start: 09 December 2023 00:00
Search period end: 19 December 2023 00:00
Orbit: 415 x 417 km, 51.6° (Epoch: 09 December)

Date Brightness Start Highest point End Pass type
(mag) Time Alt. Az. Time Alt. Az. Time Alt. Az.
14 Dec -2.3 06:51:23 10° SSW 06:54:33 42° SE 06:57:44 10° ENE visible
15 Dec -1.0 06:03:07 10° S 06:05:43 21° SE 06:08:19 10° ENE visible
16 Dec -0.4 05:15:59 10° SE 05:16:54 11° SE 05:17:50 10° ESE visible
16 Dec -3.6 06:49:58 10° WSW 06:53:14 51° NW 06:56:29 10° NE visible
17 Dec -3.7 06:01:45 17° SW 06:04:10 77° SE 06:07:31 10° NE visible
18 Dec -1.6 05:16:17 27° E 05:16:17 27° E 05:18:14 10° ENE visible
18 Dec -2.2 06:49:27 10° W 06:51:55 19° NW 06:54:23 10° NNE visible
